Previsão horária em Bárna

Hoje, 23 Julho, Sexta-feira

Tempo Temperatura Precipitação Vento Pressão Humidade
00:00 +19°C° 0 mm 1 m/s 724 mmHg 68%
01:00 +19°C° 0 mm 1 m/s 724 mmHg 68%
02:00 +18°C° 0 mm 1 m/s 724 mmHg 69%
03:00 +18°C° 0 mm 1 m/s 724 mmHg 70%
04:00 +16°C° 0 mm 1 m/s 724 mmHg 70%
05:00 +18°C° 0 mm 1 m/s 724 mmHg 69%
06:00 +17°C° 0 mm 0 m/s 724 mmHg 68%
07:00 +17°C° 0 mm 0 m/s 724 mmHg 65%
08:00 +19°C° 0 mm 0 m/s 724 mmHg 59%
09:00 +23°C° 0 mm 1 m/s 724 mmHg 54%
10:00 +24°C° 0 mm 1 m/s 724 mmHg 48%
11:00 +25°C° 0 mm 1 m/s 724 mmHg 44%
12:00 +26°C° 0 mm 2 m/s 724 mmHg 39%
13:00 +27°C° 0 mm 2 m/s 724 mmHg 35%
14:00 +27°C° 0 mm 2 m/s 723 mmHg 36%
15:00 +27°C° 0 mm 1 m/s 723 mmHg 38%
16:00 +26°C° 0 mm 1 m/s 723 mmHg 39%
17:00 +25°C° 0 mm 1 m/s 723 mmHg 44%
18:00 +23°C° 0 mm 1 m/s 723 mmHg 50%
19:00 +20°C° 0 mm 0 m/s 723 mmHg 55%
20:00 +19°C° 0 mm 0 m/s 723 mmHg 55%
21:00 +19°C° 0 mm 0 m/s 723 mmHg 56%
22:00 +18°C° 0 mm 0 m/s 723 mmHg 57%
23:00 +17°C° 0 mm 0 m/s 723 mmHg 58%

Amanhã, 24 Julho, Sábado

Tempo Temperatura Precipitação Vento Pressão Humidade
00:00 +17°C° 0 mm 0 m/s 723 mmHg 60%
01:00 +18°C° 0 mm 1 m/s 723 mmHg 62%
02:00 +18°C° 0 mm 1 m/s 723 mmHg 63%
03:00 +16°C° 0 mm 0 m/s 723 mmHg 65%
04:00 +15°C° 0 mm 0 m/s 722 mmHg 67%
05:00 +17°C° 0 mm 0 m/s 723 mmHg 63%
06:00 +18°C° 0 mm 0 m/s 723 mmHg 60%
07:00 +20°C° 0 mm 0 m/s 723 mmHg 56%
08:00 +23°C° 0 mm 1 m/s 723 mmHg 50%
09:00 +25°C° 0 mm 1 m/s 723 mmHg 45%
10:00 +27°C° 0 mm 1 m/s 724 mmHg 39%
11:00 +28°C° 0 mm 2 m/s 723 mmHg 36%
12:00 +29°C° 0 mm 2 m/s 723 mmHg 33%
13:00 +29°C° 0 mm 2 m/s 723 mmHg 30%
14:00 +29°C° 0 mm 2 m/s 723 mmHg 30%
15:00 +30°C° 0 mm 2 m/s 723 mmHg 29%
16:00 +30°C° 0 mm 2 m/s 722 mmHg 29%
17:00 +28°C° 0 mm 2 m/s 722 mmHg 36%
18:00 +26°C° 0 mm 1 m/s 722 mmHg 43%
19:00 +24°C° 0 mm 1 m/s 722 mmHg 50%
20:00 +22°C° 0 mm 1 m/s 722 mmHg 52%
21:00 +21°C° 0 mm 1 m/s 722 mmHg 54%
22:00 +20°C° 0 mm 1 m/s 722 mmHg 55%
23:00 +19°C° 0 mm 1 m/s 722 mmHg 58%

Depois de amanhã, 25 Julho, Domingo

Tempo Temperatura Precipitação Vento Pressão Humidade
00:00 +19°C° 0 mm 1 m/s 722 mmHg 60%
01:00 +18°C° 0 mm 1 m/s 722 mmHg 63%
02:00 +18°C° 0 mm 1 m/s 722 mmHg 65%
03:00 +16°C° 0 mm 1 m/s 722 mmHg 67%
04:00 +16°C° 0 mm 1 m/s 722 mmHg 68%
05:00 +18°C° 0 mm 2 m/s 722 mmHg 63%
06:00 +19°C° 0 mm 2 m/s 722 mmHg 58%
07:00 +21°C° 0 mm 2 m/s 723 mmHg 53%
08:00 +24°C° 0 mm 2 m/s 723 mmHg 48%
09:00 +26°C° 0 mm 3 m/s 723 mmHg 42%
10:00 +28°C° 0 mm 3 m/s 723 mmHg 36%
11:00 +29°C° 0 mm 4 m/s 722 mmHg 33%
12:00 +30°C° 0 mm 4 m/s 722 mmHg 30%
13:00 +33°C° 0 mm 4 m/s 722 mmHg 26%
14:00 +33°C° 0 mm 4 m/s 722 mmHg 27%
15:00 +33°C° 0 mm 4 m/s 721 mmHg 28%
16:00 +33°C° 0 mm 4 m/s 721 mmHg 29%
17:00 +30°C° 0.1 mm 3 m/s 721 mmHg 38%
18:00 +27°C° 0.1 mm 2 m/s 720 mmHg 47%
19:00 +25°C° 0.1 mm 1 m/s 720 mmHg 56%
20:00 +23°C° 0.9 mm 1 m/s 720 mmHg 65%
21:00 +21°C° 0.9 mm 1 m/s 720 mmHg 73%
22:00 +19°C° 0.9 mm 1 m/s 721 mmHg 82%
23:00 +19°C° 0.7 mm 1 m/s 721 mmHg 84%

26 Julho, Segunda-feira

Tempo Temperatura Precipitação Vento Pressão Humidade
00:00 +19°C° 0.7 mm 1 m/s 721 mmHg 85%
01:00 +18°C° 0.7 mm 1 m/s 721 mmHg 87%
02:00 +18°C° 0.4 mm 1 m/s 721 mmHg 88%
03:00 +18°C° 0.4 mm 1 m/s 721 mmHg 90%
04:00 +16°C° 0.4 mm 2 m/s 721 mmHg 91%
05:00 +18°C° 0 mm 2 m/s 721 mmHg 86%
06:00 +19°C° 0 mm 2 m/s 721 mmHg 81%
07:00 +20°C° 0 mm 2 m/s 722 mmHg 76%
08:00 +23°C° 0 mm 2 m/s 722 mmHg 67%
09:00 +25°C° 0 mm 3 m/s 722 mmHg 58%
10:00 +27°C° 0 mm 3 m/s 723 mmHg 49%
11:00 +28°C° 0 mm 3 m/s 722 mmHg 45%
12:00 +30°C° 0 mm 3 m/s 722 mmHg 41%
13:00 +31°C° 0 mm 3 m/s 722 mmHg 37%
14:00 +33°C° 0 mm 3 m/s 722 mmHg 36%
15:00 +33°C° 0 mm 3 m/s 722 mmHg 36%
16:00 +34°C° 0 mm 2 m/s 722 mmHg 35%
17:00 +31°C° 0 mm 2 m/s 721 mmHg 42%
18:00 +29°C° 0 mm 2 m/s 721 mmHg 48%
19:00 +27°C° 0 mm 1 m/s 720 mmHg 54%
20:00 +26°C° 0 mm 1 m/s 720 mmHg 56%
21:00 +25°C° 0 mm 1 m/s 721 mmHg 57%
22:00 +24°C° 0 mm 1 m/s 721 mmHg 58%
23:00 +23°C° 0.1 mm 1 m/s 721 mmHg 62%

27 Julho, Terça-feira

Tempo Temperatura Precipitação Vento Pressão Humidade
00:00 +23°C° 0.1 mm 1 m/s 721 mmHg 66%
01:00 +22°C° 0.1 mm 1 m/s 721 mmHg 70%
02:00 +21°C° 0.1 mm 1 m/s 721 mmHg 74%
03:00 +20°C° 0.1 mm 1 m/s 721 mmHg 77%
04:00 +19°C° 0.1 mm 1 m/s 721 mmHg 81%
05:00 +21°C° 0 mm 1 m/s 722 mmHg 77%
06:00 +22°C° 0 mm 1 m/s 722 mmHg 73%
07:00 +23°C° 0 mm 1 m/s 722 mmHg 69%
08:00 +25°C° 0 mm 1 m/s 722 mmHg 62%
09:00 +27°C° 0 mm 1 m/s 723 mmHg 55%
10:00 +29°C° 0 mm 2 m/s 723 mmHg 48%
11:00 +31°C° 0 mm 2 m/s 723 mmHg 43%
12:00 +32°C° 0 mm 2 m/s 722 mmHg 38%
13:00 +35°C° 0 mm 2 m/s 722 mmHg 34%
14:00 +35°C° 0 mm 2 m/s 722 mmHg 33%
15:00 +35°C° 0 mm 2 m/s 722 mmHg 32%
16:00 +35°C° 0 mm 3 m/s 721 mmHg 32%
17:00 +33°C° 0 mm 3 m/s 721 mmHg 37%
18:00 +30°C° 0 mm 3 m/s 721 mmHg 43%
19:00 +27°C° 0 mm 3 m/s 721 mmHg 48%
20:00 +26°C° 0 mm 2 m/s 721 mmHg 51%
21:00 +25°C° 0 mm 2 m/s 721 mmHg 54%
22:00 +24°C° 0 mm 2 m/s 721 mmHg 57%
23:00 +23°C° 0 mm 2 m/s 721 mmHg 58%

28 Julho, Quarta-feira

Tempo Temperatura Precipitação Vento Pressão Humidade
00:00 +23°C° 0 mm 1 m/s 721 mmHg 60%
01:00 +22°C° 0 mm 1 m/s 721 mmHg 62%
02:00 +22°C° 0 mm 1 m/s 721 mmHg 63%
03:00 +21°C° 0 mm 1 m/s 721 mmHg 64%
04:00 +21°C° 0 mm 1 m/s 721 mmHg 65%
05:00 +21°C° 0 mm 2 m/s 721 mmHg 63%
06:00 +23°C° 0 mm 2 m/s 721 mmHg 62%
07:00 +24°C° 0 mm 2 m/s 722 mmHg 60%
08:00 +26°C° 0 mm 3 m/s 722 mmHg 57%
09:00 +27°C° 0 mm 3 m/s 722 mmHg 53%
10:00 +29°C° 0 mm 4 m/s 722 mmHg 50%
11:00 +30°C° 0 mm 4 m/s 723 mmHg 45%
12:00 +32°C° 0 mm 4 m/s 723 mmHg 41%
13:00 +33°C° 0 mm 4 m/s 723 mmHg 36%
14:00 +32°C° 0 mm 5 m/s 723 mmHg 38%
15:00 +30°C° 0 mm 5 m/s 723 mmHg 40%
16:00 +29°C° 0 mm 5 m/s 723 mmHg 43%
17:00 +27°C° 0 mm 5 m/s 723 mmHg 49%
18:00 +25°C° 0 mm 4 m/s 723 mmHg 55%
19:00 +22°C° 0 mm 3 m/s 723 mmHg 61%
20:00 +21°C° 0 mm 3 m/s 723 mmHg 64%
21:00 +20°C° 0 mm 2 m/s 723 mmHg 67%
22:00 +19°C° 0 mm 2 m/s 723 mmHg 70%
23:00 +19°C° 0 mm 2 m/s 723 mmHg 73%
Mostrar mais